Date,TemperatureHighF,TemperatureAvgF,TemperatureLowF,DewpointHighF,DewpointAvgF,DewpointLowF,HumidityHigh,HumidityAvg,HumidityLow,PressureMaxIn,PressureMinIn,WindSpeedMaxMPH,WindSpeedAvgMPH,GustSpeedMaxMPH,PrecipitationSumIn
2013-1-1,27.7,21.9,13.8,24.3,18.8,11.2,95,88,86,29.74,29.16,0,0,0,0.00
2013-1-2,21.2,13.2,7.8,18.2,10.5,5.2,89,89,87,29.57,29.18,0,0,0,0.00
2013-1-3,16.5,12.1,7.3,13.7,9.1,-99.9,89,89,89,29.68,29.57,0,-4,0,0.00
2013-1-4,12.6,6.5,-0.8,10.0,3.9,-3.7,100,89,87,29.87,29.66,0,0,0,0.00
2013-1-5,2.9,0.2,-2.3,0.2,-2.6,-5.4,88,87,86,29.87,29.43,0,0,0,0.00
2013-1-6,9.9,3.2,-4.4,7.3,0.5,-7.5,89,88,86,29.44,29.27,0,0,0,0.00
2013-1-7,4.1,-2.2,-12.4,1.4,-5.6,-99.9,88,86,83,29.56,29.20,0,-4,0,0.00
2013-1-8,1.8,-6.3,-16.0,-1.2,-9.6,-20.1,95,85,81,30.16,29.57,0,0,0,0.00
2013-1-9,-2.4,-9.5,-16.2,-5.6,-13.3,-99.9,95,84,81,30.23,29.96,0,-3,0,0.00
2013-1-10,12.5,4.7,-13.4,9.9,1.8,-17.3,99,87,83,30.13,29.94,0,0,0,0.00
2013-1-11,17.1,11.2,2.4,14.1,8.5,-0.3,99,88,88,30.22,29.90,0,0,0,0.00
2013-1-12,20.4,17.0,11.8,17.3,14.1,9.2,89,88,88,30.21,29.73,0,0,0,0.00
2013-1-13,32.2,28.8,18.8,26.1,23.2,15.7,88,79,76,29.75,29.52,0,0,0,0.00
2013-1-14,35.7,31.9,27.5,28.9,25.6,21.3,90,77,73,29.85,29.23,15,0,15,0.00
2013-1-15,30.1,14.8,6.9,26.7,11.4,4.4,89,86,79,30.24,29.85,19,1,19,0.00
2013-1-16,8.5,4.0,-2.5,5.9,1.3,-5.6,89,88,86,30.25,29.87,1,0,1,0.00
2013-1-17,15.0,4.8,-10.1,11.9,0.7,-14.2,92,83,75,30.22,29.83,8,0,8,0.00
2013-1-18,-10.2,-19.6,-24.1,-14.2,-24.0,-28.7,92,79,77,30.51,30.22,0,0,0,0.00
2013-1-19,1.7,-10.1,-23.9,-1.3,-13.7,-28.5,92,83,78,30.51,30.17,0,0,0,0.00
2013-1-20,13.1,8.1,-4.6,10.5,5.4,-7.7,89,88,86,30.17,30.07,1,0,1,0.00
2013-1-21,11.7,6.7,-7.2,9.0,3.1,-99.9,89,86,83,30.18,30.06,2,-7,2,0.00
2013-1-22,0.9,-7.4,-11.2,-2.0,-10.9,-14.9,87,84,83,30.07,29.80,0,0,0,0.00
2013-1-23,10.5,0.7,-10.6,6.3,-3.9,-14.3,88,80,73,29.80,29.67,6,0,6,0.00
2013-1-24,5.7,-0.6,-7.9,-0.8,-8.4,-14.8,76,69,65,29.90,29.72,6,0,6,0.00
2013-1-25,-7.5,-21.7,-35.5,-14.2,-27.2,-41.2,89,74,71,30.11,29.90,4,0,4,0.00
2013-1-26,-25.6,-32.7,-39.3,-28.6,-38.2,-45.1,89,73,71,30.27,30.11,0,0,0,0.00
2013-1-27,-32.2,-37.5,-39.3,-37.7,-43.2,-45.3,74,71,70,30.72,30.27,0,0,0,0.00
2013-1-28,-27.7,-36.1,-39.3,-32.9,-41.9,-45.3,75,71,70,30.75,30.17,3,0,3,0.00
2013-1-29,-5.2,-13.6,-29.5,-8.5,-17.6,-34.9,92,81,74,30.17,29.97,0,0,0,0.00
2013-1-30,10.3,3.4,-5.0,7.1,0.2,-8.5,87,86,85,30.01,29.73,2,0,2,0.00
2013-1-31,13.3,9.5,5.8,10.2,6.6,2.8,89,88,86,30.15,29.76,1,0,2,0.00
2013-2-1,8.1,-1.1,-7.6,5.4,-4.1,-11.0,89,86,84,30.21,29.93,1,0,1,0.00
2013-2-2,13.2,3.6,-5.1,10.6,0.8,-8.3,89,88,86,29.94,29.57,1,0,1,0.00
2013-2-3,13.5,5.9,1.1,10.6,3.1,-1.7,89,88,88,29.57,29.36,1,0,1,0.00
2013-2-4,16.0,11.3,4.8,13.1,8.6,2.0,89,89,88,29.69,29.53,1,0,1,0.00
2013-2-5,7.6,2.7,-3.7,5.1,-0.4,-99.9,89,87,86,29.71,29.65,1,-4,3,0.00
2013-2-6,5.5,0.7,-4.0,2.6,-2.3,-7.1,88,87,86,29.78,29.64,2,0,2,0.00
2013-2-7,9.3,1.5,-6.6,6.5,-1.4,-9.9,98,87,85,29.76,29.35,1,0,1,0.00
2013-2-8,7.3,4.7,0.5,4.5,1.8,-2.4,88,87,85,29.87,29.39,1,0,1,0.00
2013-2-9,28.6,10.8,-5.4,25.4,7.8,-8.7,89,88,85,29.85,29.07,2,0,2,0.00
2013-2-10,26.7,17.4,6.0,23.3,14.5,3.5,95,88,86,29.52,28.98,5,0,5,0.00
2013-2-11,22.0,16.2,3.5,19.3,13.5,0.6,89,89,88,29.75,29.52,3,0,3,0.00
2013-2-12,12.8,0.8,-7.9,9.7,-2.2,-11.2,88,87,85,29.84,29.75,1,0,1,0.00
2013-2-13,12.6,-0.2,-8.2,9.5,-3.7,-99.9,98,86,84,29.84,29.79,1,-4,1,0.00
2013-2-14,20.7,10.4,0.1,18.0,7.7,-2.6,99,88,87,29.80,29.37,1,0,2,0.00
2013-2-15,21.5,10.5,-1.4,18.8,6.8,-5.1,89,84,79,30.09,29.47,10,0,10,0.00
2013-2-16,6.1,-5.1,-14.5,1.1,-8.9,-18.4,86,83,79,30.16,29.94,2,0,2,0.00
2013-2-17,-0.4,-3.8,-7.3,-3.7,-7.5,-10.8,86,84,79,30.23,29.90,10,0,10,0.00
2013-2-18,-4.7,-15.6,-26.5,-9.8,-20.1,-31.3,92,80,77,30.34,30.22,11,0,11,0.00
2013-2-19,1.2,-19.1,-33.5,-5.5,-24.8,-99.9,92,76,72,30.22,29.67,1,-7,1,0.00
2013-2-20,6.5,-9.4,-26.7,-0.6,-14.7,-31.7,84,77,70,29.67,29.44,4,0,4,0.00
2013-2-21,5.7,1.3,-1.4,-0.4,-3.1,-5.5,86,81,71,29.50,29.39,5,0,5,0.00
2013-2-22,-1.4,-6.3,-18.1,-5.5,-10.6,-22.4,92,81,76,29.68,29.43,3,0,3,0.00
2013-2-23,7.1,-4.3,-17.4,1.2,-8.9,-21.7,84,80,73,29.61,29.37,3,0,3,0.00
2013-2-24,2.9,-6.8,-14.7,-3.9,-11.2,-18.8,85,81,72,29.75,29.40,1,0,1,0.00
2013-2-25,17.7,-2.3,-14.5,9.0,-7.3,-99.9,85,80,67,29.82,29.75,2,-4,2,0.00
2013-2-26,27.6,4.3,-10.2,16.4,-0.6,-13.9,96,81,59,29.82,29.51,1,0,1,0.00
2013-2-27,36.9,10.0,-5.0,21.3,5.0,-8.3,88,81,50,29.51,29.34,2,0,2,0.01
2013-2-28,33.5,11.9,-1.2,21.0,7.2,-4.4,88,82,54,29.51,29.39,4,0,4,0.00
2013-3-1,14.6,9.4,3.9,10.7,6.3,0.9,88,87,83,30.03,29.51,3,0,3,0.00
2013-3-2,19.4,5.6,-4.1,13.4,2.1,-7.6,88,85,76,30.19,30.03,2,0,2,0.00
2013-3-3,19.0,1.4,-11.6,12.1,-2.8,-15.5,96,82,73,30.46,30.19,2,0,2,0.00
2013-3-4,25.6,5.5,-11.3,17.1,1.0,-15.2,98,81,68,30.51,30.30,3,0,3,0.00
2013-3-5,32.4,13.0,1.8,20.4,8.3,-1.2,88,82,60,30.30,29.95,2,0,2,0.00
2013-3-6,18.7,6.0,-2.4,10.0,1.7,-5.5,88,82,67,29.96,29.88,3,0,3,0.00
2013-3-7,38.9,17.5,-3.5,25.8,10.8,-7.0,88,76,53,29.89,29.42,8,0,8,0.00
2013-3-8,44.2,29.3,17.1,33.6,23.5,14.2,92,80,51,29.62,29.48,4,0,4,0.03
2013-3-9,37.4,27.1,17.7,28.1,21.7,14.2,92,81,64,30.01,29.62,6,0,6,0.07
2013-3-10,29.9,20.5,4.8,26.8,16.1,1.2,97,83,68,30.32,30.01,9,0,9,0.00
2013-3-11,26.2,9.8,-2.0,16.8,5.2,-5.4,87,82,66,30.61,30.32,4,0,4,0.00
2013-3-12,26.1,5.5,-10.2,9.0,-2.5,-99.9,86,72,44,30.62,30.38,6,-3,6,0.00
2013-3-13,18.3,1.1,-15.8,3.2,-9.7,-20.4,82,62,37,30.38,30.28,27,3,27,0.00
2013-3-14,20.2,8.0,-2.4,-2.0,-9.2,-16.7,51,45,36,30.30,30.18,18,2,18,0.00
2013-3-15,24.9,4.9,-16.4,-1.2,-9.5,-21.7,78,54,29,30.21,29.96,14,1,16,0.00
2013-3-16,28.6,6.7,-12.5,6.2,-5.0,-17.4,87,61,37,30.22,30.03,7,0,7,0.00
2013-3-17,17.4,3.0,-12.0,3.5,-4.6,-16.4,92,71,53,30.34,30.18,4,0,4,0.00
2013-3-18,20.7,4.3,-7.9,4.6,-3.8,-11.9,83,70,49,30.19,30.03,4,0,4,0.00
2013-3-19,18.8,2.3,-13.4,3.9,-6.7,-18.0,80,66,46,30.18,30.07,10,0,10,0.00
2013-3-20,13.0,-0.9,-16.0,1.3,-8.3,-21.0,78,71,58,30.08,29.95,6,0,6,0.00
2013-3-21,23.4,9.2,-2.4,13.1,3.7,-6.3,92,78,59,30.14,30.02,5,0,5,0.00
2013-3-22,32.7,20.0,8.5,17.9,9.6,3.3,84,65,46,30.04,29.68,11,0,11,0.00
2013-3-23,23.9,5.4,-10.5,18.5,-3.1,-15.5,83,68,47,30.09,29.71,15,1,15,0.00
2013-3-24,12.2,-2.0,-21.2,5.1,-8.4,-99.9,86,75,54,30.08,29.80,5,-3,5,0.00
2013-3-25,13.0,7.4,4.7,7.1,2.5,-1.5,86,80,69,29.80,29.66,12,0,12,0.00
2013-3-26,8.1,1.8,-14.6,-1.5,-6.8,-20.8,83,67,49,30.24,29.80,15,1,15,0.00
2013-3-27,13.6,-5.5,-23.5,-1.9,-14.4,-29.1,77,66,47,30.32,30.16,5,0,5,0.00
2013-3-28,34.4,8.4,-18.1,14.5,-2.8,-23.1,79,63,37,30.17,29.91,5,0,5,0.01
2013-3-29,46.9,26.0,7.3,24.0,13.6,3.2,84,62,37,29.91,29.84,6,0,6,0.11
2013-3-30,37.7,23.6,6.6,21.7,14.0,3.3,86,68,47,30.19,29.91,5,0,5,0.00
2013-3-31,39.8,31.2,19.8,30.4,23.4,14.9,92,73,59,30.25,30.13,5,0,5,0.00
2013-4-1,39.4,31.8,24.0,31.7,23.8,18.2,92,73,53,30.13,30.04,9,0,9,0.02
2013-4-2,37.8,25.9,10.5,21.4,16.0,7.2,87,67,49,30.21,30.08,7,0,8,0.00
2013-4-3,33.9,25.1,16.5,14.2,9.8,1.6,74,53,37,30.49,30.21,15,1,15,0.00
2013-4-4,31.2,20.5,3.2,5.1,1.8,-5.0,73,45,29,30.49,30.10,16,2,16,0.00
2013-4-5,19.7,14.7,5.3,3.0,-3.1,-99.9,55,45,38,30.10,29.76,21,-2,21,0.00
2013-4-6,21.9,9.9,-6.1,1.6,-4.9,-99.9,72,52,39,29.77,29.61,13,-3,13,0.00
2013-4-7,11.6,8.1,-2.4,6.6,2.1,-6.0,85,76,51,29.94,29.66,5,0,5,0.00
2013-4-8,14.6,4.0,-12.2,10.5,-0.3,-99.9,92,83,78,29.96,29.50,5,-3,5,0.00
2013-4-9,15.6,11.3,9.0,11.4,7.8,5.1,88,85,78,29.49,29.16,11,0,11,0.00
2013-4-10,18.0,9.8,-4.4,6.6,1.6,-10.4,83,70,50,29.98,29.47,11,1,13,0.00
2013-4-11,17.8,2.1,-16.1,3.6,-6.6,-20.9,92,68,45,30.27,29.98,10,0,10,0.00
2013-4-12,26.9,8.0,-11.5,8.8,-2.1,-99.9,82,65,44,30.37,30.27,6,-3,6,0.01
2013-4-13,28.7,11.7,-8.6,8.4,0.3,-12.9,82,62,39,30.50,30.37,8,0,8,0.00
2013-4-14,29.7,17.6,3.0,20.2,9.7,-2.8,79,71,58,30.59,30.50,7,0,8,0.01
2013-4-15,32.2,24.2,13.0,17.0,10.5,7.3,87,58,38,30.55,30.46,13,1,13,0.00
2013-4-16,30.9,24.0,14.3,17.8,10.2,4.4,72,55,45,30.46,30.26,12,1,12,0.00
2013-4-17,31.5,24.7,12.5,13.9,10.7,5.7,76,56,44,30.39,30.26,21,2,21,0.00
2013-4-18,33.9,25.4,10.3,13.3,8.0,-99.9,70,49,36,30.44,30.38,17,-2,17,0.00
2013-4-19,44.2,28.7,10.1,18.1,10.8,4.1,78,49,25,30.50,30.40,6,0,6,0.01
2013-4-20,44.6,30.6,12.0,22.9,13.6,6.0,78,52,29,30.41,30.27,10,0,10,0.00
2013-4-21,48.4,30.9,12.6,21.1,15.5,8.7,85,57,26,30.37,30.31,8,1,8,0.00
2013-4-22,49.4,33.0,14.3,24.1,17.4,9.8,83,56,31,30.48,30.37,8,0,8,0.00
2013-4-23,50.9,36.4,19.1,25.1,19.5,15.1,85,54,29,30.40,30.17,15,1,16,0.00
2013-4-24,41.5,35.8,30.3,31.6,27.6,18.9,87,73,40,30.17,29.97,21,2,21,0.09
2013-4-25,35.3,28.9,22.2,24.3,7.6,-0.3,78,41,30,30.10,29.99,14,2,14,0.00
2013-4-26,32.4,23.4,10.7,26.8,14.0,4.7,92,67,49,30.01,29.61,7,1,7,0.00
2013-4-27,30.6,26.8,17.7,24.0,10.7,-1.2,92,54,27,30.16,29.67,17,2,18,0.00
2013-4-28,38.4,23.2,4.2,18.9,7.4,-3.2,78,51,37,30.20,30.09,11,1,12,0.00
2013-4-29,35.2,29.4,17.6,29.0,22.0,12.6,87,74,52,30.14,30.08,13,1,13,0.00
2013-4-30,38.5,32.0,28.5,31.6,27.6,24.0,88,84,68,30.08,29.87,7,1,7,0.22
2013-5-1,37.5,30.3,24.9,27.5,22.8,13.9,92,75,54,29.87,29.66,14,2,14,0.04
2013-5-2,40.2,30.6,21.9,25.2,20.0,13.4,83,65,54,29.91,29.72,7,1,7,0.00
2013-5-3,41.1,33.9,28.5,32.2,28.2,21.8,87,80,63,29.94,29.83,13,1,13,0.02
2013-5-4,38.8,30.1,22.2,26.2,23.0,18.9,87,76,48,29.99,29.89,10,1,10,0.00
2013-5-5,42.7,33.4,21.5,23.4,18.0,12.7,92,57,32,30.13,29.99,14,1,14,0.00
2013-5-6,46.5,34.4,17.7,22.1,17.4,12.6,81,53,30,30.19,30.11,16,1,16,0.00
2013-5-7,48.4,37.8,21.7,24.4,21.1,17.6,84,54,30,30.26,30.19,13,1,14,0.00
2013-5-8,53.2,40.0,22.7,25.2,22.5,18.6,85,53,29,30.32,30.22,12,1,12,0.00
2013-5-9,61.2,45.8,26.0,29.3,25.3,22.4,86,49,26,30.36,30.17,10,0,10,0.00
2013-5-10,61.1,49.8,33.4,31.2,27.8,24.8,79,45,27,30.20,29.92,11,1,11,0.00
2013-5-11,61.4,47.5,36.8,32.3,21.7,-99.9,72,44,31,29.92,29.63,12,-61,12,0.00
2013-5-12,53.9,16.1,41.3,34.1,-55.7,-99.9,72,18,40,29.64,29.44,12,-662,12,0.00
2013-5-13,36.8,2.5,24.2,12.6,-91.2,-99.9,46,3,35,29.67,29.48,12,-919,12,0.00
2013-5-14,42.4,2.9,27.8,18.6,-90.6,-99.9,59,4,37,29.67,29.60,7,-919,7,0.00
2013-5-15,50.7,3.6,27.3,21.9,-89.1,-99.9,73,4,31,29.69,29.60,13,-909,13,0.00
2013-5-16,53.3,3.1,31.0,27.9,-90.7,-99.9,77,4,36,29.65,29.39,11,-926,11,0.00
2013-5-17,38.8,1.7,37.7,31.9,-94.0,-99.9,77,3,75,29.65,29.36,5,-954,6,0.00
2013-5-18,26.2,1.1,25.6,10.9,-95.3,-99.9,53,2,49,30.19,29.65,14,-957,14,0.00
2013-5-19,35.5,1.4,34.2,10.9,-95.3,-99.9,37,1,34,30.56,30.19,11,-957,11,0.00
2013-5-20,56.6,3.7,31.5,21.8,-89.9,-99.9,67,3,23,30.63,30.40,5,-916,5,0.00
2013-5-21,57.4,4.7,49.2,26.3,-89.6,-99.9,39,3,26,30.44,30.10,7,-912,7,0.00
2013-5-22,67.0,2.7,65.1,31.8,-94.4,-99.9,28,1,27,30.10,29.91,8,-957,8,0.00
2013-5-23,-200.0,0.0,200.0,-99.9,-99.9,-99.9,0,0,100,30.07,29.96,0,-999,0,0.00
2013-5-24,-200.0,0.0,200.0,-99.9,-99.9,-99.9,0,0,100,30.10,29.93,0,-999,0,0.00
2013-5-25,-200.0,0.0,200.0,-99.9,-99.9,-99.9,0,0,100,29.95,29.76,0,-999,0,0.00
2013-5-26,-200.0,0.0,200.0,-99.9,-99.9,-99.9,0,0,100,29.84,29.73,0,-999,0,0.00
2013-5-27,-200.0,0.0,200.0,-99.9,-99.9,-99.9,0,0,100,29.84,29.70,0,-999,0,0.00
2013-5-28,-200.0,0.0,200.0,-99.9,-99.9,-99.9,0,0,100,29.75,29.63,0,-999,0,0.00
2013-5-29,-200.0,0.0,200.0,-99.9,-99.9,-99.9,0,0,100,29.66,29.60,0,-999,0,0.00
2013-5-30,-200.0,0.0,200.0,-99.9,-99.9,-99.9,0,0,100,29.81,29.66,0,-999,0,0.00
2013-5-31,-200.0,0.0,200.0,-99.9,-99.9,-99.9,0,0,100,29.93,29.81,0,-999,0,0.00
2013-6-1,-200.0,0.0,200.0,-99.9,-99.9,-99.9,0,0,100,30.03,29.92,0,-999,0,0.00
2013-6-2,-200.0,0.0,200.0,-99.9,-99.9,-99.9,0,0,100,30.02,29.82,0,-999,0,0.00
2013-6-3,-200.0,0.0,200.0,-99.9,-99.9,-99.9,0,0,100,29.88,29.62,0,-999,0,0.00
2013-6-4,-200.0,0.0,200.0,-99.9,-99.9,-99.9,0,0,100,29.62,29.51,0,-999,0,0.00
2013-6-5,-200.0,0.0,200.0,-99.9,-99.9,-99.9,0,0,100,29.82,29.57,0,-999,0,0.00
2013-6-6,-200.0,0.0,200.0,-99.9,-99.9,-99.9,0,0,100,29.85,29.74,0,-999,0,0.00
2013-6-7,-200.0,0.0,200.0,-99.9,-99.9,-99.9,0,0,100,29.89,29.77,0,-999,0,0.00
2013-6-8,-200.0,0.0,200.0,-99.9,-99.9,-99.9,0,0,100,30.07,29.88,0,-999,0,0.00
2013-6-9,-200.0,0.0,200.0,-99.9,-99.9,-99.9,0,0,100,30.18,30.07,0,-999,0,0.00
2013-6-10,-200.0,0.0,200.0,-99.9,-99.9,-99.9,0,0,100,30.24,30.18,0,-999,0,0.00
2013-6-11,-200.0,0.0,200.0,-99.9,-99.9,-99.9,0,0,100,30.24,30.08,0,-999,0,0.00
2013-6-12,-200.0,0.0,200.0,-99.9,-99.9,-99.9,0,0,100,30.11,30.01,0,-999,0,0.00
2013-6-13,-200.0,0.0,200.0,-99.9,-99.9,-99.9,0,0,100,30.10,30.02,0,-999,0,0.00
2013-6-14,-200.0,0.0,200.0,-99.9,-99.9,-99.9,0,0,100,30.14,30.05,0,-999,0,0.00
2013-6-15,-200.0,0.0,200.0,-99.9,-99.9,-99.9,0,0,100,30.22,30.11,0,-999,0,0.00
2013-6-16,-200.0,0.0,200.0,-99.9,-99.9,-99.9,0,0,100,30.21,30.10,0,-999,0,0.00
2013-6-17,-200.0,0.0,200.0,-99.9,-99.9,-99.9,0,0,100,30.18,30.06,0,-999,0,0.00
2013-6-18,-200.0,0.0,200.0,-99.9,-99.9,-99.9,0,0,100,30.08,29.83,0,-999,0,0.00
2013-6-19,-200.0,0.0,200.0,-99.9,-99.9,-99.9,0,0,100,29.87,29.75,0,-999,0,0.00
2013-6-20,-200.0,0.0,200.0,-99.9,-99.9,-99.9,0,0,100,29.89,29.73,0,-999,0,0.00
2013-6-21,-200.0,0.0,200.0,-99.9,-99.9,-99.9,0,0,100,29.88,29.74,0,-999,0,0.00
2013-6-22,-200.0,0.0,200.0,-99.9,-99.9,-99.9,0,0,100,29.86,29.66,0,-999,0,0.00
2013-6-23,-200.0,0.0,200.0,-99.9,-99.9,-99.9,0,0,100,29.68,29.54,0,-999,0,0.00
2013-6-24,-200.0,0.0,200.0,-99.9,-99.9,-99.9,0,0,100,29.62,29.55,0,-999,0,0.00
2013-6-25,-200.0,0.0,200.0,-99.9,-99.9,-99.9,0,0,100,29.63,29.56,0,-999,0,0.00
2013-6-26,-200.0,0.0,200.0,-99.9,-99.9,-99.9,0,0,100,29.67,29.60,0,-999,0,0.00
2013-6-27,-200.0,0.0,200.0,-99.9,-99.9,-99.9,0,0,100,29.94,29.66,0,-999,0,0.00
2013-6-28,-200.0,0.0,200.0,-99.9,-99.9,-99.9,0,0,100,30.01,29.94,0,-999,0,0.00
2013-6-29,-200.0,0.0,200.0,-99.9,-99.9,-99.9,0,0,100,29.97,29.85,0,-999,0,0.00
2013-6-30,-200.0,0.0,200.0,-99.9,-99.9,-99.9,0,0,100,29.86,29.59,0,-999,0,0.00
2013-7-1,-200.0,0.0,200.0,-99.9,-99.9,-99.9,0,0,100,29.61,29.41,0,-999,0,0.00
2013-7-2,-200.0,0.0,200.0,-99.9,-99.9,-99.9,0,0,100,29.69,29.49,0,-999,0,0.00
2013-7-3,-200.0,0.0,200.0,-99.9,-99.9,-99.9,0,0,100,29.89,29.69,0,-999,0,0.00
2013-7-4,-200.0,0.0,200.0,-99.9,-99.9,-99.9,0,0,100,29.98,29.84,0,-999,0,0.00
2013-7-5,-200.0,0.0,200.0,-99.9,-99.9,-99.9,0,0,100,30.03,29.92,0,-999,0,0.00
2013-7-6,-200.0,0.0,200.0,-99.9,-99.9,-99.9,0,0,100,29.93,29.71,0,-999,0,0.00
2013-7-7,-200.0,0.0,200.0,-99.9,-99.9,-99.9,0,0,100,29.71,29.48,0,-999,0,0.00
2013-7-8,-200.0,0.0,200.0,-99.9,-99.9,-99.9,0,0,100,29.69,29.51,0,-999,0,0.00
2013-7-9,-200.0,0.0,200.0,-99.9,-99.9,-99.9,0,0,100,29.96,29.69,0,-999,0,0.00
2013-7-10,-200.0,0.0,200.0,-99.9,-99.9,-99.9,0,0,100,30.00,29.95,0,-999,0,0.00